SCP
0 0 0 0 0 0 0 0 0 0 0 0 0 0 0 0 0 0 0 0 0 0 0 0 0 0 0 0 0 0 0 0 0 0 0 0 0 0 0 0 0 0 0 0 0 0 0 0 0
0 0 0 0 0 0 0 0 0 0 0 0 0 0 0 0 0 0 0 0 0 0 0 0 0 0 0 0 0 0 0 0 0 0 0 0 0 0 0 0 0 0 0 0 0 0 0 0 0
0 0 0 0 0 0 0 0 0 0 0 0 0 0 0 0 0 0 0 0 0 0 0 0 0 0 0 0 0 0 0 0 0 0 0 0 0 0 0 0 0 0 0 0 0 0 0 0 0
0 0 0 0 0 0 0 0 0 0 0 0 0 0 0 0 0 0 0 0 0 0 0 0 0 0 0 0 0 0 0 0 0 0 0 0 0 0 0 0 0 0 0 0 0 0 0 0 0
0 0 0 0 0 0 0 0 0 0 0 0 0 0 0 0 0 0 0 0 0 0 0 0 0 0 0 0 0 0 0 0 0 0 0 0 0 0 0 0 0 0 0 0 0 0 0 0 0
0 0 0 0 0 0 0 0 0 0 0 0 0 0 0 0 0 0 0 0 0 0 0 0 0 0 0 0 0 0 0 0 0 0 0 0 0 0 0 0 0 0 0 0 0 0 0 0 0
0 0 0 0 0 0 0 0 0 0 0 0 0 0 0 0 0 0 0 0 0 0 0 0 0 0 0 0 0 0 0 0 0 0 0 0 0 0 0 0 0 0 0 0 0 0 0 0 0
0 0 0 0 0 0 0 0 0 0 0 0 0 0 0 0 0 0 0 0 0 0 0 0 0 0 0 0 0 0 0 0 0 0 0 0 0 0 0 0 0 0 0 0 0 0 0 0 0
0 0 0 0 0 0 0 0 0 0 0 0 0 0 0 0 0 0 0 0 0 0 0 0 0 0 0 0 0 0 0 0 0 0 0 0 0 0 0 0 0 0 0 0 0 0 0 0 0
0 0 0 0 0 0 0 0 0 0 0 0 0 0 0 0 0 0 0 0 0 0 0 0 0 0 0 0 0 0 0 0 0 0 0 0 0 0 0 0 0 0 0 0 0 0 0 0 0
0 0 0 0 0 0 0 0 0 0 0 0 0 0 0 0 0 0 0 0 0 0 0 0 0 0 0 0 0 0 0 0 0 0 0 0 0 0 0 0 0 0 0 0 0 0 0 0 0
0 0 0 0 0 0 0 0 0 0 0 0 0 0 0 0 0 0 0 0 0 0 0 0 0 0 0 0 0 0 0 0 0 0 0 0 0 0 0 0 0 0 0 0 0 0 0 0 0
0 0 0 0 0 0 0 0 0 0 0 0 0 0 0 0 0 0 0 0 0 0 0 0 0 0 0 0 0 0 0 0 0 0 0 0 0 0 0 0 0 0 0 0 0 0 0 0 0
0 0 0 0 0 0 0 0 0 0 0 0 0 0 0 0 0 0 0 0 0 0 0 0 0 0 0 0 0 0 0 0 0 0 0 0 0 0 0 0 0 0 0 0 0 0 0 0 0
0 0 0 0 0 0 0 0 0 0 0 0 0 0 0 0 0 0 0 0 0 0 0 0 0 0 0 0 0 0 0 0 0 0 -0 0 0 0 0 0 0 0 0 0 0 0 0 0 0
0 0 0 0 0 0 0 0 0 0 0 0 0 0 0 0 0 0 0 0 0 0 0 0 0 0 0 0 0 0 0 0 0 -0 0 0 0 0 0 0 0 0 0 0 0 0 0 0 0
0 0 0 0 0 0 0 0 0 0 0 0 0 0 0 0 0 0 0 0 0 0 0 0 0 0 0 0 0 0 0 0 0 0 0 0 0 0 0 0 0 0 0 0 0 0 0 0 0
0 0 0 0 0 0 0 0 0 0 0 0 0 0 0 0 0 0 0 0 0 0 0 0 0 0 0 0 0 0 0 0 0 0 0 0 0 0 0 0 0 0 0 0 0 0 0 0 0
0 0 0 0 0 0 0 0 0 0 0 0 0 0 0 0 0 0 0 0 0 0 0 0 0 0 0 0 0 0 0 0 0 0 0 0 0 0 0 0 0 0 0 0 0 0 0 0 0
0 0 0 0 0 0 0 0 0 0 0 0 0 0 0 0 0 0 0 0 0 0 0 0 0 0 0 0 0 0 0 0 0 0 0 0 0 0 0 0 0 0 0 0 0 0 0 0 0
0 0 0 0 0 0 0 0 0 0 0 0 0 0 0 0 0 0 0 0 0 0 0 0 0 0 0 0 0 0 0 0 0 0 0 0 0 0 0 0 0 0 0 0 0 0 0 0 0
0 0 0 0 0 0 0 0 0 0 0 0 0 0 0 0 0 0 0 0 0 0 0 0 0 0 0 0 0 0 0 0 0 0 0 0 0 0 0 0 0 0 0 0 0 0 0 0 0
0 0 0 0 0 0 0 0 0 0 0 0 0 0 0 0 0 0 0 0 0 0 0 0 0 0 0 0 0 0 0 0 0 0 0 0 0 0 0 0 0 0 0 0 0 0 0 0 0
0 0 0 0 0 0 0 0 0 0 0 0 0 0 0 0 0 0 0 0 0 0 0 0 0 0 0 0 0 0 0 0 0 0 0 0 0 0 0 0 0 0 0 0 0 0 0 0 0
0 0 0 0 0 0 0 0 0 0 0 0 0 0 0 0 0 0 0 0 0 0 0 0 0 0 0 0 0 0 0 0 0 0 0 0 0 0 0 0 0 0 0 0 0 0 0 0 0
0 0 0 0 0 0 0 0 0 0 0 0 0 0 0 0 0 0 0 0 0 0 0 0 0 0 0 0 0 0 0 0 0 0 -0 -0 0 0 0 0 0 0 0 0 0 0 0 0 0
0 0 0 0 0 0 0 0 0 0 0 0 0 0 0 0 0 0 0 0 0 0 0 0 0 0 0 0 0 0 0 0 0 0 -0 -0 0 0 0 0 0 0 0 0 0 0 0 0 0
0 0 0 0 0 0 0 0 0 0 0 0 0 0 0 0 0 0 0 0 0 0 0 0 0 0 0 0 0 0 0 0 0 0 0 0 0 0 0 0 0 0 0 0 0 0 0 0 0
0 0 0 0 0 0 0 0 0 0 0 0 0 0 0 0 0 0 0 0 0 0 0 0 0 0 0 0 0 0 0 0 0 0 0 0 0 0 0 0 0 0 0 0 0 0 0 0 0
0 0 0 0 0 0 0 0 0 0 0 0 0 0 0 0 0 0 0 0 0 0 0 0 0 0 0 0 0 0 0 0 0 0 0 0 0 0 0 0 0 0 0 0 0 0 0 0 0
Wind_Speed
4 2 2 4 6 5 1 1 0 2 2 2 4 5 6 4 2 3 1 4 6 5 4 7 10 11 12 13 12 12 12 12 12 12 11 11 10 10 9 9 9 8 8 8 8 7 7 7 7
1 1 4 5 5 3 1 1 2 2 3 3 5 5 6 5 4 5 3 4 6 6 5 6 10 11 11 12 12 12 12 11 11 11 10 10 9 9 8 8 8 8 8 7 7 7 7 7 7
1 3 4 4 3 2 1 1 2 3 3 2 4 5 4 3 3 3 3 6 6 6 5 6 10 11 11 11 12 12 11 11 11 10 10 9 8 8 8 7 7 7 7 7 6 7 7 7 6
3 4 4 4 2 1 1 1 3 4 4 5 4 5 4 3 2 4 6 7 7 5 5 6 11 11 11 11 11 11 11 10 10 9 8 8 7 7 7 6 6 6 6 6 5 6 6 6 6
4 4 5 3 1 1 1 1 2 3 3 4 4 5 3 4 5 8 7 6 7 6 4 5 10 11 11 11 11 10 10 9 8 7 7 6 6 6 6 5 5 5 5 5 5 5 5 5 5
4 4 4 2 1 2 2 2 3 5 4 4 4 4 3 3 6 6 6 6 6 6 5 5 9 11 11 10 10 9 9 8 7 6 6 5 4 4 4 4 4 4 4 4 4 4 4 4 5
4 4 3 2 1 2 2 2 3 4 4 3 3 5 3 3 4 6 6 6 6 6 5 4 4 6 8 9 8 8 8 7 6 5 5 5 4 4 3 3 3 3 3 3 3 3 3 4 5
4 4 3 1 2 1 1 2 3 4 4 3 3 5 4 4 5 7 7 6 6 5 5 4 4 4 4 4 6 7 6 6 5 5 4 5 5 5 4 4 3 4 3 3 4 4 4 4 5
3 5 2 1 2 1 1 3 3 3 5 4 4 3 5 9 9 8 6 5 4 4 4 3 4 4 4 3 4 5 5 5 6 5 6 6 4 4 4 4 4 4 4 4 5 5 6 6 6
4 4 1 0 2 3 3 3 3 4 4 4 5 6 9 9 9 8 6 5 3 3 2 2 3 3 3 2 3 3 3 4 4 3 4 3 3 3 4 5 6 5 5 5 6 6 6 5 3
3 3 1 1 1 3 4 3 3 6 2 3 7 9 9 9 7 7 6 4 3 2 2 2 2 2 3 2 2 2 2 2 3 4 3 3 3 3 3 3 4 4 5 4 4 4 3 3 3
3 2 1 1 2 3 3 3 4 3 2 4 8 10 10 10 8 7 6 4 3 3 2 1 2 2 2 3 2 2 2 2 2 2 3 2 2 2 2 2 2 2 2 3 3 2 3 3 3
3 2 3 3 5 5 6 4 4 3 4 7 9 9 9 8 6 5 5 4 4 3 1 1 2 3 2 3 2 2 2 2 2 2 2 2 2 2 2 2 2 2 2 2 2 2 3 3 3
2 3 3 3 4 3 6 3 3 3 5 8 8 7 7 7 7 5 5 5 4 4 3 2 3 3 3 3 2 2 2 2 2 2 2 2 2 2 2 2 2 2 2 2 2 3 3 2 3
2 4 5 4 3 2 5 4 1 3 6 7 5 5 5 5 5 6 6 6 5 4 4 4 4 3 4 3 2 2 2 2 2 2 2 2 2 2 2 2 2 2 2 3 3 3 3 3 3
4 4 3 3 2 1 5 1 1 3 6 5 4 4 5 5 5 4 5 5 5 4 4 4 4 4 4 3 2 2 2 2 2 2 2 2 3 3 2 2 2 2 2 3 3 3 3 3 3
4 3 1 2 2 1 3 2 1 3 5 5 5 5 5 4 4 4 5 5 5 5 5 4 4 5 4 3 3 3 3 3 2 2 2 2 3 3 3 2 2 2 3 3 3 3 2 3 3
2 2 1 1 2 2 3 2 2 3 4 5 4 4 4 5 5 5 5 5 5 5 4 5 4 4 4 3 3 3 3 3 3 2 2 2 2 3 3 3 3 3 3 3 3 3 3 3 2
4 3 1 1 1 2 2 2 3 3 3 4 4 5 5 5 3 4 5 5 5 5 5 5 5 4 4 2 2 2 2 2 2 2 3 3 3 3 3 3 3 3 3 2 2 2 4 3 2
4 3 1 1 1 2 2 2 3 4 5 6 6 7 7 5 4 4 5 5 5 6 5 5 5 5 4 3 2 2 2 1 1 2 3 3 3 2 3 3 2 2 3 3 3 3 2 3 3
2 3 3 2 2 3 1 2 3 3 3 4 5 6 6 8 8 7 7 6 6 6 6 6 5 5 4 4 3 3 3 3 2 3 2 3 3 3 3 3 3 3 3 2 2 2 3 2 3
2 3 4 3 2 1 1 2 5 4 4 5 6 6 7 7 7 7 8 7 7 6 6 6 5 5 4 5 4 4 3 2 0 0 1 2 3 3 3 3 3 3 2 3 2 3 2 3 2
3 2 4 3 2 1 1 1 6 1 5 8 7 7 8 8 9 9 9 9 7 6 5 5 5 4 4 4 5 5 3 2 1 1 2 3 3 3 3 3 3 3 2 3 3 3 3 2 2
4 5 5 4 3 1 3 3 6 5 8 7 8 8 8 8 8 8 6 6 5 5 5 5 6 4 4 5 5 5 5 4 3 2 2 2 2 3 3 3 3 3 3 3 3 3 4 3 3
4 5 3 3 2 4 2 3 8 7 7 8 9 9 8 7 8 8 8 8 7 7 7 6 7 5 5 5 5 5 5 5 4 3 2 1 1 1 2 2 3 3 3 3 3 4 4 3 3
3 5 5 3 3 4 1 5 8 5 4 5 6 6 7 7 7 8 9 9 8 8 8 7 7 6 5 5 5 4 4 3 3 3 2 2 1 1 1 2 3 3 3 4 4 4 3 3 4
5 2 4 4 1 1 4 6 7 2 1 1 4 5 7 7 8 8 8 8 8 8 9 9 8 7 6 6 5 4 4 4 4 3 2 2 1 2 3 3 4 4 4 4 4 4 3 4 4
4 6 4 3 2 2 5 4 4 3 2 1 3 5 6 6 6 7 7 7 7 7 7 7 8 8 6 6 5 4 4 4 4 3 3 3 2 2 3 4 4 4 4 4 5 4 3 5 4
4 3 4 3 3 3 2 7 5 5 4 5 6 5 6 7 7 7 6 6 6 7 7 7 7 7 6 6 5 5 4 4 4 3 3 3 3 3 4 3 4 4 4 4 4 4 4 5 4
5 6 6 4 3 3 2 8 5 4 4 4 5 5 5 6 6 6 6 6 6 7 7 8 7 7 7 6 6 5 4 4 4 3 3 3 4 3 4 4 4 4 4 3 4 4 4 4 4
Wind_Direction
344 37 77 59 55 53 43 335 61 66 57 50 74 84 93 79 101 134 116 127 121 120 118 126 125 121 120 118 117 114 111 109 108 108 106 103 102 102 101 100 97 94 92 88 85 86 83 80 76
355 75 57 59 79 73 339 339 83 82 126 125 71 69 73 67 65 99 118 130 126 122 115 123 125 120 119 119 118 115 112 108 108 107 105 103 102 101 99 99 96 93 88 86 82 82 79 76 72
37 54 76 70 88 141 162 77 114 90 95 83 77 56 67 79 94 118 145 132 120 117 116 130 125 122 122 120 119 115 112 110 107 104 102 101 100 99 97 95 93 91 86 80 77 75 73 72 69
73 46 55 71 85 194 170 132 133 116 67 49 84 68 59 57 118 132 128 122 114 107 111 128 126 126 123 120 118 117 114 111 108 106 104 103 100 96 94 92 89 86 84 77 70 67 66 64 61
60 72 63 60 57 20 47 86 100 79 71 59 79 83 47 14 92 109 115 116 113 105 103 122 124 121 120 116 116 114 111 109 107 104 99 98 95 94 92 86 82 79 76 69 62 57 57 54 55
55 64 82 88 47 27 41 53 88 79 84 82 78 86 54 64 103 109 107 106 108 106 102 109 118 118 117 114 112 110 105 102 98 95 90 87 87 91 90 85 77 69 62 57 54 48 47 50 58
96 88 105 109 83 55 72 76 89 98 83 79 95 91 85 85 103 105 100 97 93 93 89 80 87 102 112 112 111 109 103 96 92 88 82 76 73 67 69 64 63 57 45 40 46 49 52 53 61
111 98 84 73 105 78 52 84 74 83 92 84 89 120 149 150 120 103 90 85 85 79 76 74 68 65 68 78 100 101 95 89 82 73 66 56 44 35 31 27 30 38 37 39 50 56 58 59 62
82 75 92 148 138 121 87 92 73 68 92 66 61 106 136 129 119 108 99 85 84 83 65 68 68 62 61 59 70 71 70 64 60 51 50 49 34 22 13 6 15 24 32 40 49 58 63 62 58
75 96 136 209 157 130 105 95 110 90 82 76 76 81 112 122 126 127 128 126 122 110 86 80 79 71 61 57 53 41 42 39 41 42 43 44 36 18 21 10 19 24 34 40 46 53 56 52 44
81 124 155 23 93 111 110 94 86 115 112 152 140 134 130 129 132 134 136 140 148 138 118 100 98 82 76 61 57 45 38 37 33 36 39 41 35 21 25 20 16 20 33 31 32 41 41 44 42
87 53 79 43 83 91 107 108 91 108 160 141 138 138 137 141 149 150 149 147 136 132 149 119 110 92 81 76 65 62 56 49 40 28 38 49 40 29 23 27 19 28 29 35 36 41 44 45 43
73 61 55 62 69 86 91 86 103 85 93 108 119 129 144 152 152 150 149 137 131 144 157 138 121 109 91 81 67 67 58 60 53 42 39 59 65 47 36 36 37 37 37 43 47 50 51 48 40
96 85 60 41 53 66 92 73 82 99 114 118 131 145 156 159 156 152 152 151 156 163 164 142 119 114 104 92 82 69 63 64 58 46 38 61 78 75 64 55 43 34 36 46 54 58 58 49 45
87 82 53 23 41 67 90 57 65 137 128 128 143 154 158 168 162 166 169 166 165 161 151 146 134 117 109 98 89 81 68 68 57 43 41 57 72 79 77 69 51 32 40 53 55 50 51 53 51
57 66 58 345 21 56 107 142 282 136 138 143 154 164 166 180 181 174 168 159 154 147 149 154 145 128 115 102 89 75 67 65 49 41 44 51 64 76 77 74 56 42 52 55 60 51 54 48 48
46 82 92 343 15 60 110 170 218 155 156 162 172 179 182 182 181 175 170 164 158 156 152 146 132 130 123 109 89 74 63 56 44 40 40 43 58 70 78 71 59 58 60 51 57 52 63 60 51
155 121 96 326 344 93 119 189 217 179 171 180 183 183 190 193 196 177 171 162 151 149 145 143 132 130 122 103 80 62 52 39 37 36 31 48 58 68 75 69 58 62 68 54 53 61 54 59 53
139 125 125 272 276 112 157 209 232 203 184 191 197 196 199 209 191 159 161 152 144 144 147 154 147 143 127 105 97 87 62 24 24 22 29 46 59 66 76 74 61 60 71 72 73 74 61 43 28
121 115 129 332 34 121 163 233 236 214 207 204 202 208 203 196 172 165 162 159 163 161 161 163 160 154 143 125 116 113 111 73 38 8 23 29 49 60 78 80 76 69 75 66 60 71 78 41 29
153 166 184 175 46 48 91 313 243 242 216 214 212 208 204 196 186 180 175 177 174 173 173 170 167 157 145 129 108 84 63 43 30 15 8 4 34 57 70 78 81 74 78 80 64 68 90 85 35
202 199 162 141 104 326 111 276 271 229 229 226 220 210 209 204 189 182 182 184 186 184 172 163 159 154 150 143 136 133 129 122 119 341 5 12 33 50 62 73 78 77 76 80 68 68 77 102 79
184 127 119 119 116 26 314 212 279 227 234 234 221 211 212 203 192 188 187 188 186 177 166 162 153 154 153 150 146 137 130 129 96 55 53 31 26 36 51 64 74 76 73 76 72 70 70 80 99
118 75 63 51 71 297 232 190 271 227 220 222 212 206 206 198 191 187 180 174 170 164 158 156 154 154 150 148 146 145 143 137 121 100 78 39 24 25 38 59 66 70 72 74 78 78 78 78 84
84 89 48 11 11 260 246 206 249 242 221 210 207 205 202 190 182 179 175 174 172 170 166 161 158 155 151 148 149 152 152 150 151 152 141 113 55 27 22 51 64 67 72 76 81 80 73 73 81
152 135 151 183 224 283 278 240 257 261 244 217 199 188 183 182 182 186 184 180 178 175 168 164 164 160 158 156 157 152 152 149 152 153 149 143 126 102 70 73 73 74 77 80 81 78 72 71 73
133 152 162 134 173 276 280 282 300 320 356 143 155 160 181 186 184 187 184 179 177 175 174 172 167 162 165 165 157 149 149 151 153 150 137 128 119 107 89 84 81 75 76 79 83 77 69 72 66
140 143 113 121 147 276 299 284 260 275 273 196 180 185 190 186 185 184 182 179 178 176 172 169 164 167 167 163 163 157 153 155 152 140 135 129 116 101 101 89 87 83 78 80 82 78 70 74 58
131 130 128 127 152 159 284 280 235 220 216 209 212 200 190 188 188 185 181 175 169 165 166 168 166 161 162 161 158 150 153 152 143 141 145 137 122 116 112 106 98 93 87 86 88 82 78 78 64
168 168 150 152 201 177 194 270 279 233 222 212 216 200 188 188 183 176 170 162 164 166 169 172 169 168 168 162 156 155 151 145 144 146 145 137 127 119 117 112 105 102 97 94 99 97 86 87 77